#timestamp,LO_Frequency,Hit,StdDev 
1595718015.4,286046998.2,N
1595718035.2,286046998.4,N
1595718055.0,286046998.6,N
1595718055.9,286046998.6,N
1595718075.8,286046999.4,N
1595718095.6,286046998.4,N
1595718115.5,286046999.3,N
1595718135.3,286046999.4,N
1595718155.1,286046999.2,N
1595718175.9,286046996.6,Y
1595718195.7,286046998.4,P
1595718215.6,286046996.7,P
1595718235.4,286046996.9,N
1595718255.2,286046998.7,N
1595718275.1,286046999.4,N
1595718276.0,286046999.4,N
1595718295.8,286047001.1,N
1595718315.6,286047001.1,N
1595718335.5,286046996.7,N
1595718355.3,286046998.9,N
1595718375.2,286047002.7,N
1595718395.9,286047000.3,N
1595718415.7,286046998.7,N
1595718435.6,286046996.7,N
1595718455.4,286046997.1,N
1595718475.2,286046997.3,N
1595718495.1,286046997.6,N
1595718496.0,286046997.6,N
1595718515.8,286046997.1,N
1595718535.7,286046997.7,N
1595718555.5,286046997.8,N
1595718575.3,286046999.6,N
1595718595.2,286046999.4,N
1595718615.0,286046996.7,N
1595718615.9,286046996.7,N
1595718635.8,286046997.3,N
1595718655.6,286046995.7,N
1595718675.4,286046995.3,N
1595718695.3,286046998.0,N
1595718715.1,286046997.7,N
1595718735.9,286046997.7,N
1595718755.7,286046996.2,N
1595718775.5,286046997.5,N
1595718795.4,286046995.2,N
1595718815.2,286046995.5,N
1595718835.0,286046995.4,N
1595718836.0,286046995.4,N
1595718855.8,286046995.4,N
1595718875.6,286046995.3,N
1595718895.5,286046997.8,N
1595718915.3,286046997.7,N
1595718935.1,286046996.2,N
1595718955.9,286046996.3,Y
1595718975.7,286046999.1,P
1595718995.6,286046998.1,N
1595719015.4,286046998.2,N
1595719035.3,286047000.6,N
1595719055.1,286046998.7,N
1595719056.0,286046998.7,N
1595719075.8,286047001.1,N
1595719095.7,286046998.4,N
1595719115.5,286046998.7,N
1595719135.3,286046998.5,N
1595719155.2,286046998.6,N
1595719175.0,286046999.9,N
1595719175.9,286046999.9,N
1595719195.8,286047000.1,N
1595719215.6,286047002.4,N
1595719235.4,286047000.6,N
1595719255.3,286047001.0,N
1595719275.1,286047000.2,N
1595719295.9,286047000.9,N
1595719315.7,286047000.4,N
1595719335.5,286047002.5,N
1595719355.4,286047002.3,N
1595719375.2,286047002.4,N
1595719395.0,286047000.1,N
1595719395.9,286047000.1,N
1595719415.8,286047002.1,N
1595719435.6,286047000.2,N
1595719455.5,286047000.1,N
1595719475.3,286046999.7,N
1595719495.1,286047000.2,N
1595719515.9,286047002.3,N
1595719535.7,286047002.2,N
1595719555.6,286047002.2,N
1595719575.4,286047002.0,N
1595719595.2,286047001.8,N
1595719615.1,286047004.4,Y
1595719616.0,286047004.4,P
1595719635.8,286047001.9,N
1595719655.3,286047002.1,N
1595719675.2,286047001.6,N
1595719695.0,286047002.1,N
1595719695.9,286047002.1,N
1595719715.8,286047001.5,N
1595719735.6,286047001.7,N
1595719755.4,286047002.0,N
1595719775.3,286047001.6,N
1595719795.1,286047002.5,N
1595719815.9,286046999.8,N
1595719835.7,286047002.1,N
1595719855.5,286047002.4,N
1595719875.4,286047001.9,N
1595719895.2,286047001.6,N
1595719915.0,286047002.1,N
1595719915.9,286047002.1,N
1595719935.8,286047002.4,N
1595719955.6,286047001.6,N
1595719975.5,286047002.1,N
1595719995.3,286047001.6,N
1595720015.1,286047002.8,Y
1595720035.9,286047001.2,P
1595720055.7,286046998.1,P
1595720075.6,286047000.8,N
1595720095.4,286047000.9,N
1595720115.2,286047000.5,N
1595720135.1,286047001.2,N
1595720136.0,286047001.2,N
1595720155.8,286047000.5,N
1595720175.7,286046998.6,N
1595720195.5,286046998.2,N
1595720215.3,286047001.1,N
1595720235.2,286046998.1,N
1595720255.0,286047000.6,N
1595720255.9,286047000.6,N
1595720275.8,286047000.5,N
1595720295.6,286047001.2,N
1595720315.4,286046998.1,N
1595720335.3,286047001.2,N
1595720355.1,286046998.1,N
1595720375.9,286047000.6,N
1595720395.7,286047000.3,N
1595720415.5,286046999.7,N
1595720435.4,286047002.3,N
1595720455.2,286047002.8,N
1595720475.1,286047002.6,N
1595720476.0,286047002.6,N
1595720495.8,286047000.1,N
1595720515.6,286046999.9,N
1595720535.5,286047002.3,N
1595720555.3,286047002.3,N
1595720575.1,286047002.2,N
1595720595.9,286047002.5,N
1595720615.7,286047002.1,N
1595720635.6,286047003.8,N
1595720655.4,286047004.3,N
1595720675.2,286047002.2,N
1595720695.1,286047002.8,N
1595720696.0,286047002.8,N
1595720715.8,286047002.5,N
1595720735.7,286047002.1,N
1595720755.5,286047001.9,N
1595720775.3,286047002.5,N
1595720795.2,286047000.1,N
1595720815.0,286047000.1,N
1595720815.9,286047000.1,N
1595720835.7,286046999.9,N
1595720855.6,286047000.9,N
1595720875.4,286047000.1,N
1595720895.3,286046999.8,N
1595720915.1,286047002.8,N
1595720935.8,286047000.1,N
1595720955.7,286047002.7,N
1595720975.5,286046999.9,N
1595720995.4,286047002.7,N
1595721015.2,286047002.3,N
1595721035.0,286047002.3,N
1595721035.9,286047002.3,N
1595721055.8,286047002.3,N
1595721075.6,286047002.7,N
1595721095.5,286047002.7,N
1595721115.3,286046999.8,N
1595721135.1,286046999.7,N
1595721155.9,286047002.8,N
1595721175.7,286046999.8,N
1595721195.5,286047000.1,N
1595721215.4,286047002.6,N
1595721235.2,286047002.4,N
1595721255.1,286047002.7,N
1595721256.0,286047002.7,N
1595721275.8,286046999.9,N
1595721295.6,286047000.0,N
1595721315.5,286047000.2,N
1595721335.3,286047000.6,N
1595721355.2,286047001.2,N
1595721375.9,286047000.8,N
1595721395.7,286047000.7,N
1595721415.6,286047000.9,N
1595721435.4,286046998.5,N
1595721455.2,286047000.9,N
1595721475.1,286047000.7,N
1595721476.0,286047000.7,N
1595721495.8,286047000.6,N
1595721515.7,286047000.5,N
1595721535.5,286047000.7,N
1595721555.3,286047001.1,N
1595721575.2,286047000.7,N
1595721595.0,286047002.7,N
1595721595.9,286047002.7,N
